Regional Weather Roundup
Issued by NWS Charleston, SC

Current Version | Previous Version | Text Only | Print | Product List | Glossary Off
Versions: 1 2 3 4 5 6 7 8 9 10 11 12 13 14 15 16 17 18 19 20 21 22 23 24 25 26 27 28 29 30 31 32 33 34 35 36 37 38 39 40 41 42 43 44 45 46 47 48 49 50

587
ASUS42 KCHS 301412
RWRCHS

REGIONAL WEATHER ROUNDUP
NATIONAL WEATHER SERVICE CHARLESTON SC
1000 AM EDT SUN APR 30 2017

NOTE: "FAIR" INDICATES FEW OR NO CLOUDS BELOW 12,000 FEET WITH NO
SIGNIFICANT WEATHER AND/OR OBSTRUCTIONS TO VISIBILITY.

NOT ALL STATIONS ARE QUALITY CONTROLLED. USE DATA WITH CAUTION...
ESPECIALLY DEWPOINT OBSERVATIONS.

SCZ027-030-031-034>040-042>050-301500-
...SOUTHEAST SOUTH CAROLINA...

CITY           SKY/WX    TMP DP  RH WIND       PRES   REMARKS
N CHARLESTON   PTSUNNY   79  69  71 S20G25    30.19S
WATERFRONT PRK   N/A     77  72  84 S9        30.18R
JOHNS ISLAND   FAIR      79  72  78 S13G18    30.19S
PINOPOLIS        N/A     79  72  78 S5G13     30.11F
MONCKS CORNER  FAIR      77  70  78 S9        30.18F
SUMMERVILLE    RAIN      79  72  78 SE6       30.19F
BEAUFORT MCAS  MOSUNNY   78  75  90 S8        30.17S
BEAUFORT ARPT  CLOUDY    77  72  83 S9G16     30.17S HAZE
HILTON HEAD IS MOSUNNY   77  73  88 S9        30.17S
WALTERBORO     HVY RAIN  73  70  88 S7G17     30.18S
ALLENDALE      PTSUNNY   79  70  73 SE13G21   30.14F

...SOUTHERN MIDLANDS AND PEE DEE...

CITY           SKY/WX    TMP DP  RH WIND       PRES   REMARKS
GEORGETOWN     CLOUDY    75  72  88 S8G16     30.21S
KINGSTREE      PTSUNNY   79  68  69 S12       30.19F
ORANGEBURG     PTSUNNY   77  69  76 S12G22    30.17S
BARNWELL       FAIR      79  70  73 S13G22    30.15F
AIKEN          PTSUNNY   75  66  73 S15       30.18S
MANNING        CLOUDY    77  70  78 S14       30.18F
COLUMBIA       PTSUNNY   79  68  69 S16G22    30.14F
SUMTER         CLOUDY    77  68  73 S10       30.15F
FLORENCE       PTSUNNY   77  70  79 S13       30.19F
MYRTLE BEACH   MOSUNNY   81  73  78 S9        30.23R
N MYRTLE BEACH CLOUDY    77  73  87 S8        30.22S

$$

GAZ063-065-086>088-099>101-113>116-118-119-134>141-150-301500-
...SOUTHEAST GEORGIA...

CITY           SKY/WX    TMP DP  RH WIND       PRES   REMARKS
SAVANNAH ARPT  PTSUNNY   84  66  54 S17       30.15S
HUNTER AAF     MOSUNNY   79  74  85 S12G22    30.13S
FORT STEWART   PTSUNNY   81  68  65 SE10G22   30.12R
STATESBORO     PTSUNNY   79  69  70 S14G21    30.15R
SYLVANIA       PTSUNNY  N/A N/A N/A S7        30.16S
CLAXTON        FAIR      77  77  99 SE9       30.15R

...CSRA...CENTRAL AND FAR SOUTHEAST GEORGIA...

CITY           SKY/WX    TMP DP  RH WIND       PRES   REMARKS
THOMSON        CLOUDY    75  67  76 SW12G20   30.18S
AUGUSTA-BUSH   CLOUDY    79  69  71 S15       30.12F
AUGUSTA-DANIEL MOSUNNY   78  65  63 S17G25    30.14S
SWAINSBORO     CLOUDY    77  68  73 S13       30.14F
VIDALIA        CLOUDY    79  70  73 S13       30.14S
EASTMAN        CLOUDY    78  60  52 S13G21    30.15R
HAZLEHURST     CLOUDY    79  72  80 S9        30.12R
ALMA           CLOUDY    79  71  76 S12G20    30.12R
WAYCROSS       CLOUDY    82  75  81 S12       30.11S
JESUP          PTSUNNY   81  68  65 S12G20    30.13S
BAXLEY         CLOUDY    79  75  89 S12G20    30.13R
BRUNSWICK      PTSUNNY   81  73  78 SE17G26   30.14S
SAINT SIMONS   PTSUNNY   80  71  74 SE14G22   30.14F

$$

SCZ027-028-034-036>038-045-046-048>050-GAZ119-141-301500-
...LAKE AND SUPPLEMENTAL COASTAL OBSERVATIONS...

STATION/POSITION TIME  TEMP    WIND        PRES    WAVE   SWELL
                       AIR SEA DIR/SP/G            HT/PER HT/PER/DIR
                 (UTC) (F)     (DEG/KT/KT) (MB)    (FT/S) (FT/S/D)
WINYAH BAY       1245   75     170/  6     1023.0
LAKE MURRAY      NOT AVBL
ACE BASIN NERRS  NOT AVBL
FORT PULASKI     1336   78 77  170/  7/ 13 1021.6S
SAPELO ISLAND    1300   78     160/ 12     1021.0

$$

ANZ835-935-AMZ111-154-330-350-352-354-370-450-454-472-301500-
...C-MAN AND BUOY OBSERVATIONS...

STATION/POSITION TIME  TEMP    WIND        PRES    WAVE   SWELL
                       AIR SEA DIR/SP/G            HT/PER HT/PER/DIR
                 (UTC) (F)     (DEG/KT/KT) (MB)    (FT/S) (FT/S/D)
BUOY 41004       1310   76 75  170/ 14/ 16 1022.6
BUOY 41008       1250   75 74  160/  8/ 10 1021.0    4/ 7   3/130/ 7
FOLLY BEACH CMAN 1300   75     150/ 10/ 12 1023.0R
CAPERS NEARSHORE 1308   77 74  180/ 10/ 14 1022.4R
FRIPP NEARSHORE  1308   75 74  160/ 12/ 16 1021.2F


STATION/POSITION TIME  TEMP    WIND        PRES    WAVE   SWELL
                       AIR SEA DIR/SP/G            HT/PER HT/PER/DIR
                 (UTC) (F)     (DEG/KT/KT) (MB)    (FT/S) (FT/S/D)
5E ST. MARYS GA  1330      75                N/A     4/ 6
FRYING PAN BUOY  1310   76 74  180/ 12/ 16 1023.5
BUOY 41025       1250   76 74  220/ 14/ 16 1023.8    3/ 4   2/150/ 7
CAPE LOOKOUT NC  1300   76     200/  9/ 12 1023.3R
BUOY 41002       1250   74 76  150/ 10/ 12 1025.6    3/ 6   3/140/ 6
BUOY 41010       1310   77 78  140/ 17/ 23 1022.0
ST AUGUSTINE FL  1300   76 76  150/ 19/ 21 1021.2R


$$




USA.gov is the U.S. government's official web portal to all federal, state and local government web resources and services.